Preview of NWS' New Version of Forecast
This preview is not operational and should not be used for support decisions.

Regional Weather Roundup (RWR)

Issued by National Weather Service (NWS)

                            
000
ASUS44 KMEG 190300
RWRTN 
TENNESSEE HOURLY STATE WEATHER ROUNDUP
NATIONAL WEATHER SERVICE MEMPHIS TN
900 PM CST MON FEB 18 2019

TNZ002-004-019-021-049-052-054-088>092-190400-
WEST TENNESSEE
  
CITY           SKY/WX    TMP DP  RH WIND       PRES   REMARKS
MEMPHIS INTL   MOCLDY    37  26  64 NE13      30.44S WCI  29          
NWS MEMPHIS      N/A     36 N/A N/A MISG        N/A                   
JACKSON        FAIR      35  25  66 NE15      30.47R WCI  25          
DYERSBURG      FAIR      33  24  69 NE13      30.50R WCI  24          
$$

TNZ008-025-027-028-033-062-065-066-190400-
NORTH MIDDLE TENNESSEE
  
CITY           SKY/WX    TMP DP  RH WIND       PRES   REMARKS
NASHVILLE      FAIR      34  22  61 NE15      30.49R WCI  24          
CLARKSVILLE    FAIR      30  22  72 NE3       30.50R                  
SMYRNA         FAIR      34  25  69 NE10      30.49R WCI  26          
CROSSVILLE     FAIR      29  21  72 NE12      30.39R WCI  19          
$$

TNZ061-075-076-078-094-096-097-190400-
SOUTH MIDDLE TENNESSEE
  
CITY           SKY/WX    TMP DP  RH WIND       PRES   REMARKS
$$

TNZ017-018-042-046-047-190400-
NORTHEAST TENNESSEE
  
CITY           SKY/WX    TMP DP  RH WIND       PRES   REMARKS
TRI CITIES     MOCLDY    33  25  72 N6        30.41R WCI  28          
$$

TNZ012-013-036-069-073-074-190400-
CENTRAL EAST TENNESSEE
  
CITY           SKY/WX    TMP DP  RH WIND       PRES   REMARKS
KNOXVILLE      MOCLDY    34  25  69 NE9       30.43R WCI  27          
OAK RIDGE      FAIR      35  25  66 NE7       30.45R WCI  29          
$$

TNZ083-085-099-190400-
SOUTHEAST TENNESSEE
  
CITY           SKY/WX    TMP DP  RH WIND       PRES   REMARKS
CHATTANOOGA    MOCLDY    40  27  59 N10       30.42R WCI  33          
$$

SKY/WX REPORTED AS FAIR MEANS FEW OR NO CLOUDS BELOW
12 THOUSAND FEET.